• In Belarus
  • List of Countries
  • For 7 days
  • Water Temperature
  • Weather Map
  • Weather Widgets
  • user-avatar
    Login

    Hourly Weather Tlyarata

    Today, 27 February, Thursday

    Time Temperature Precipitation Wind Pressure Humidity
    00:00 -5°C° 0 mm 2 mps 636 mmHg 44%
    01:00 -4°C° 0 mm 2 mps 636 mmHg 45%
    02:00 -4°C° 0 mm 2 mps 635 mmHg 46%
    03:00 -3°C° 0 mm 2 mps 635 mmHg 46%
    04:00 -3°C° 0 mm 2 mps 635 mmHg 44%
    05:00 -2°C° 0 mm 2 mps 636 mmHg 42%
    06:00 -1°C° 0 mm 2 mps 636 mmHg 40%
    07:00 +2°C° 0 mm 2 mps 636 mmHg 45%
    08:00 +4°C° 0 mm 2 mps 637 mmHg 49%
    09:00 +6°C° 0 mm 2 mps 638 mmHg 54%
    10:00 +7°C° 0 mm 2 mps 638 mmHg 61%
    11:00 +8°C° 0 mm 2 mps 637 mmHg 69%
    12:00 +8°C° 0 mm 2 mps 637 mmHg 76%
    13:00 +8°C° 0 mm 2 mps 637 mmHg 74%
    14:00 +9°C° 0 mm 2 mps 637 mmHg 72%
    15:00 +9°C° 0 mm 2 mps 636 mmHg 70%
    16:00 +7°C° 0 mm 2 mps 636 mmHg 61%
    17:00 +6°C° 0 mm 2 mps 635 mmHg 53%
    18:00 +4°C° 0 mm 2 mps 635 mmHg 44%
    19:00 +4°C° 0 mm 2 mps 635 mmHg 41%
    20:00 +4°C° 0 mm 2 mps 635 mmHg 38%
    21:00 +4°C° 0 mm 2 mps 635 mmHg 35%
    22:00 +4°C° 0 mm 2 mps 634 mmHg 35%
    23:00 +4°C° 0 mm 2 mps 634 mmHg 35%

    Tomorrow, 28 February, Friday

    Time Temperature Precipitation Wind Pressure Humidity
    00:00 +3°C° 0 mm 2 mps 634 mmHg 36%
    01:00 +3°C° 0 mm 2 mps 633 mmHg 34%
    02:00 +4°C° 0 mm 2 mps 633 mmHg 33%
    03:00 +4°C° 0 mm 2 mps 632 mmHg 32%
    04:00 +2°C° 0 mm 3 mps 632 mmHg 31%
    05:00 +2°C° 0 mm 3 mps 631 mmHg 30%
    06:00 +2°C° 0 mm 3 mps 631 mmHg 29%
    07:00 +3°C° 0 mm 3 mps 631 mmHg 35%
    08:00 +5°C° 0 mm 3 mps 632 mmHg 40%
    09:00 +7°C° 0 mm 3 mps 632 mmHg 46%
    10:00 +6°C° 0 mm 4 mps 632 mmHg 49%
    11:00 +7°C° 0 mm 4 mps 632 mmHg 51%
    12:00 +8°C° 0 mm 5 mps 632 mmHg 54%
    13:00 +7°C° 0 mm 4 mps 631 mmHg 53%
    14:00 +7°C° 0 mm 4 mps 631 mmHg 52%
    15:00 +7°C° 0 mm 4 mps 631 mmHg 51%
    16:00 +5°C° 0 mm 3 mps 631 mmHg 52%
    17:00 +3°C° 0 mm 3 mps 631 mmHg 52%
    18:00 +2°C° 0 mm 2 mps 632 mmHg 53%
    19:00 +2°C° 0 mm 2 mps 632 mmHg 51%
    20:00 +2°C° 0 mm 2 mps 633 mmHg 50%
    21:00 +2°C° 0 mm 2 mps 633 mmHg 49%
    22:00 +1°C° 0 mm 2 mps 634 mmHg 53%
    23:00 +1°C° 0 mm 2 mps 634 mmHg 57%

    Day after tomorrow, 29 February, Saturday

    Time Temperature Precipitation Wind Pressure Humidity
    00:00 +1°C° 0 mm 2 mps 634 mmHg 61%
    01:00 -1°C° 0 mm 2 mps 634 mmHg 62%
    02:00 -1°C° 0 mm 2 mps 634 mmHg 63%
    03:00 -1°C° 0 mm 2 mps 634 mmHg 64%
    04:00 -1°C° 0 mm 2 mps 634 mmHg 62%
    05:00 -1°C° 0 mm 2 mps 634 mmHg 60%
    06:00 -2°C° 0 mm 2 mps 634 mmHg 57%
    07:00 0°C° 0 mm 3 mps 635 mmHg 58%
    08:00 +1°C° 0 mm 3 mps 635 mmHg 60%
    09:00 +3°C° 0 mm 3 mps 636 mmHg 61%
    10:00 +3°C° 0 mm 3 mps 635 mmHg 67%
    11:00 +3°C° 0 mm 4 mps 635 mmHg 73%
    12:00 +4°C° 0 mm 4 mps 634 mmHg 78%
    13:00 +4°C° 0 mm 4 mps 634 mmHg 79%
    14:00 +3°C° 0 mm 4 mps 633 mmHg 79%
    15:00 +3°C° 0 mm 4 mps 633 mmHg 79%
    16:00 +2°C° 0 mm 3 mps 633 mmHg 83%
    17:00 +1°C° 0 mm 3 mps 632 mmHg 87%
    18:00 +1°C° 0 mm 2 mps 632 mmHg 92%
    19:00 +1°C° 0 mm 2 mps 632 mmHg 92%
    20:00 -1°C° 0 mm 2 mps 632 mmHg 92%
    21:00 -1°C° 0 mm 2 mps 632 mmHg 92%
    22:00 +1°C° 0 mm 1 mps 632 mmHg 90%
    23:00 +1°C° 0 mm 1 mps 631 mmHg 88%

    1 March, Sunday

    Time Temperature Precipitation Wind Pressure Humidity
    00:00 +1°C° 0 mm 1 mps 631 mmHg 85%
    01:00 +1°C° 0 mm 1 mps 631 mmHg 85%
    02:00 +1°C° 0 mm 1 mps 631 mmHg 85%
    03:00 +1°C° 0 mm 1 mps 631 mmHg 85%
    04:00 +1°C° 0.2 mm 1 mps 631 mmHg 87%
    05:00 +1°C° 0.2 mm 1 mps 632 mmHg 88%
    06:00 +2°C° 0.2 mm 1 mps 632 mmHg 90%
    07:00 +2°C° 0.6 mm 1 mps 633 mmHg 91%
    08:00 +2°C° 0.6 mm 1 mps 633 mmHg 92%
    09:00 +3°C° 0.6 mm 1 mps 634 mmHg 92%
    10:00 +3°C° 0.6 mm 1 mps 634 mmHg 93%
    11:00 +2°C° 0.6 mm 2 mps 635 mmHg 93%
    12:00 +3°C° 0.6 mm 2 mps 635 mmHg 93%
    13:00 +2°C° 0.7 mm 2 mps 635 mmHg 92%
    14:00 +2°C° 0.7 mm 2 mps 635 mmHg 92%
    15:00 +2°C° 0.7 mm 2 mps 635 mmHg 91%
    16:00 +1°C° 0.2 mm 2 mps 635 mmHg 91%
    17:00 -1°C° 0.2 mm 2 mps 635 mmHg 91%
    18:00 -2°C° 0.2 mm 2 mps 635 mmHg 91%
    19:00 -2°C° 0 mm 2 mps 636 mmHg 90%
    20:00 -2°C° 0 mm 2 mps 636 mmHg 90%
    21:00 -3°C° 0 mm 2 mps 636 mmHg 89%
    22:00 -3°C° 0 mm 2 mps 636 mmHg 89%
    23:00 -3°C° 0 mm 2 mps 636 mmHg 90%

    2 March, Monday

    Time Temperature Precipitation Wind Pressure Humidity
    00:00 -4°C° 0 mm 2 mps 636 mmHg 90%
    01:00 -2°C° 0.1 mm 1 mps 636 mmHg 90%
    02:00 -2°C° 0.1 mm 1 mps 636 mmHg 91%
    03:00 -2°C° 0.1 mm 1 mps 636 mmHg 91%
    04:00 -2°C° 0.2 mm 1 mps 637 mmHg 92%
    05:00 -2°C° 0.2 mm 1 mps 637 mmHg 93%
    06:00 -2°C° 0.2 mm 1 mps 637 mmHg 94%
    07:00 -1°C° 0.3 mm 1 mps 637 mmHg 93%
    08:00 -1°C° 0.3 mm 1 mps 638 mmHg 92%
    09:00 0°C° 0.3 mm 1 mps 638 mmHg 91%
    10:00 +1°C° 0.5 mm 1 mps 638 mmHg 91%
    11:00 -1°C° 0.5 mm 2 mps 638 mmHg 91%
    12:00 +1°C° 0.5 mm 2 mps 638 mmHg 91%
    13:00 +1°C° 0.4 mm 2 mps 638 mmHg 91%
    14:00 +1°C° 0.4 mm 2 mps 638 mmHg 92%
    15:00 -1°C° 0.4 mm 2 mps 638 mmHg 92%
    16:00 +1°C° 0.2 mm 1 mps 638 mmHg 94%
    17:00 0°C° 0.2 mm 1 mps 638 mmHg 95%
    18:00 -1°C° 0.2 mm 1 mps 638 mmHg 97%
    19:00 -2°C° 0.1 mm 1 mps 638 mmHg 97%
    20:00 -3°C° 0.1 mm 1 mps 638 mmHg 97%
    21:00 -3°C° 0.1 mm 1 mps 638 mmHg 97%
    22:00 -3°C° 0.1 mm 1 mps 638 mmHg 97%
    23:00 -6°C° 0.1 mm 2 mps 638 mmHg 96%

    3 March, Tuesday

    Time Temperature Precipitation Wind Pressure Humidity
    00:00 -6°C° 0.1 mm 2 mps 637 mmHg 96%
    01:00 -6°C° 0 mm 2 mps 637 mmHg 93%
    02:00 -6°C° 0 mm 2 mps 637 mmHg 90%
    03:00 -4°C° 0 mm 1 mps 637 mmHg 88%
    04:00 -4°C° 0 mm 1 mps 637 mmHg 79%
    05:00 -4°C° 0 mm 1 mps 637 mmHg 69%
    06:00 -3°C° 0 mm 1 mps 637 mmHg 60%
    07:00 -1°C° 0 mm 1 mps 638 mmHg 57%
    08:00 +2°C° 0 mm 1 mps 639 mmHg 55%
    09:00 +4°C° 0 mm 1 mps 640 mmHg 52%
    10:00 +5°C° 0 mm 1 mps 640 mmHg 58%
    11:00 +6°C° 0 mm 1 mps 640 mmHg 65%
    12:00 +7°C° 0 mm 1 mps 640 mmHg 72%
    13:00 +7°C° 0 mm 1 mps 640 mmHg 72%
    14:00 +7°C° 0 mm 1 mps 640 mmHg 73%
    15:00 +8°C° 0 mm 1 mps 640 mmHg 74%
    16:00 +6°C° 0 mm 1 mps 639 mmHg 72%
    17:00 +4°C° 0 mm 1 mps 639 mmHg 71%
    18:00 +2°C° 0 mm 1 mps 639 mmHg 70%
    19:00 +2°C° 0 mm 1 mps 639 mmHg 64%
    20:00 +2°C° 0 mm 1 mps 639 mmHg 59%
    21:00 +1°C° 0 mm 1 mps 639 mmHg 53%
    22:00 +1°C° 0 mm 1 mps 639 mmHg 52%
    23:00 +1°C° 0 mm 1 mps 639 mmHg 51%
    Show more